This is the latest recevied weather packets stored in our database for station/object T10BNorth. If no packets are shown the sender has not sent any weather packets the latest 10 day(s).
| Time | Temp. | Humidity | Pressure | Rain* | Wind** | Luminosity | Snow |
|---|---|---|---|---|---|---|---|
| 1777651035 | 7.78° C | 65% | 1008.2 hPa | 0 mm | - | 954 W/m² | - |
| 1777650975 | 7.78° C | 62% | 1008.2 hPa | 0 mm | - | 953 W/m² | - |
| 1777650915 | 8.33° C | 63% | 1008.1 hPa | 0 mm | - | 942 W/m² | - |
| 1777650855 | 8.33° C | 66% | 1008.3 hPa | 0 mm | - | 935 W/m² | - |
| 1777650797 | 8.33° C | 65% | 1008.3 hPa | 0 mm | - | 677 W/m² | - |
| 1777650734 | 8.33° C | 64% | 1008.3 hPa | 0 mm | - | 677 W/m² | - |
| 1777650676 | 8.33° C | 65% | 1008.3 hPa | 0 mm | - | 677 W/m² | - |
| 1777650614 | 8.33° C | 66% | 1008.3 hPa | 0 mm | - | 677 W/m² | - |
| 1777650558 | 8.33° C | 68% | 1008.3 hPa | 0 mm | - | 677 W/m² | - |
| 1777650432 | 8.33° C | 68% | 1008.3 hPa | 0 mm | - | 974 W/m² | - |
| 1777650373 | 7.78° C | 66% | 1008.4 hPa | 0 mm | - | 974 W/m² | - |
| 1777650312 | 7.78° C | 65% | 1008.4 hPa | 0 mm | - | 986 W/m² | - |
| 1777650253 | 8.33° C | 67% | 1008.3 hPa | 0 mm | - | 995 W/m² | - |
| 1777650193 | 8.33° C | 67% | 1008.4 hPa | 0 mm | - | 981 W/m² | - |
| 1777650128 | 7.78° C | 67% | 1008.3 hPa | 0 mm | - | 963 W/m² | - |
| 1777650069 | 8.33° C | 66% | 1008.4 hPa | 0 mm | - | 954 W/m² | - |
| 1777650008 | 8.33° C | 68% | 1008.3 hPa | 0 mm | - | 951 W/m² | - |
| 1777649949 | 8.33° C | 66% | 1008.4 hPa | 0 mm | - | 951 W/m² | - |
| 1777649889 | 8.33° C | 66% | 1008.5 hPa | 0 mm | - | 972 W/m² | - |
| 1777649829 | 8.33° C | 68% | 1008.4 hPa | 0 mm | - | 956 W/m² | - |
| 1777649769 | 7.78° C | 69% | 1008.4 hPa | 0 mm | - | 933 W/m² | - |
| 1777649708 | 7.78° C | 67% | 1008.4 hPa | 0 mm | - | 918 W/m² | - |
| 1777649649 | 7.78° C | 69% | 1008.4 hPa | 0 mm | - | 916 W/m² | - |
| 1777649588 | 7.78° C | 69% | 1008.4 hPa | 0 mm | - | 935 W/m² | - |
| 1777649528 | 7.78° C | 69% | 1008.4 hPa | 0 mm | - | 935 W/m² | - |
* Rain latest hour (hover to see other rain measurements)
** Current wind speed in m/s (hover to see current wind gust speed)